Regional Weather Roundup
Issued by NWS

Home | Current Version | Previous Version | Text Only | Print | Product List | Glossary Off
Versions: 1 2 3 4 5 6 7 8 9 10 11 12 13 14 15 16 17 18 19 20 21 22 23 24 25 26 27 28 29 30 31 32 33 34 35 36 37 38 39 40 41 42 43 44 45 46 47 48 49 50

000
ASUS43 KDMX 280803
RWRIA

WEATHER ROUNDUP FOR IOWA
NATIONAL WEATHER SERVICE DES MOINES IA
300 AM CDT SUN AUG 28 2016

NOTE: "FAIR" INDICATES FEW OR NO CLOUDS BELOW 12,000 FEET WITH NO
SIGNIFICANT WEATHER AND/OR OBSTRUCTIONS TO VISIBILITY.

* - THESE STATIONS ARE NOT NWS STATIONS...THUS NOT UNDER NWS
QUALITY CONTROL.  THEY ALSO DO NOT REPORT WEATHER SUCH
AS PRECIPITATION OR FOG.

IAZ001>003-012>014-020>022-031>034-043>046-280900-
   NORTHWEST IOWA

CITY           SKY/WX    TMP DP  RH WIND       PRES   REMARKS
CARROLL *      FOG       61  59  94 CALM      30.09S VSB 1/4
CHEROKEE *     CLEAR     60  60 100 CALM      30.08S FOG
DENISON *      FOG       64  63  94 CALM      30.06S VSB 1/2
LE MARS *      CLEAR     66  64  94 S6        30.06S
ORANGE CITY *  CLEAR     64  63  94 S3        30.07S
SHELDON *      CLEAR     63  63 100 E5        30.05S
SIOUX CITY     CLEAR     64  62  93 E7        30.05F
SPENCER        CLEAR     61  59  93 SE5       30.08S FOG
STORM LAKE *   CLEAR     61  61 100 SE7       30.09S FOG
$$

IAZ055>058-069>071-079>083-090>094-280900-
   SOUTHWEST IOWA

CITY           SKY/WX    TMP DP  RH WIND       PRES   REMARKS
ATLANTIC *     PTCLDY    61  61 100 CALM      30.09S
AUDUBON *      CLOUDY    59  55  88 CALM      30.10S FOG
CLARINDA *       N/A     66  66 100 MISG      30.10F
COUNCIL BLFS * PTCLDY    68  66  94 SE6       30.08S
CRESTON *      PTCLDY    68  66  94 E5        30.11F
HARLAN  *      FOG       61  61 100 CALM      30.11F VSB<1/4
LAMONI         MOCLDY    70  69  97 E5        30.10F
RED OAK *      MOCLDY    64  64 100 CALM      30.08S
SHENANDOAH *   MOCLDY    66 N/A N/A NE5       30.08S
$$

IAZ047>049-059>061-072>074-084-280900-
   CENTRAL IOWA

CITY           SKY/WX    TMP DP  RH WIND       PRES   REMARKS
AMES           FOG       63  63 100 CALM      30.10S VSB 1
ANKENY *         N/A    N/A N/A N/A MISG        N/A
BOONE *        CLEAR     64  64 100 SE5       30.10R FOG
CHARITON *       N/A     68  66  94 MISG      30.09F
DES MOINES     PTCLDY    71  69  93 SE3       30.09S
GRINNELL*      CLEAR     65  64  96 E5        30.12S FOG
KNOXVILLE *    CLOUDY    70  68  94 CALM      30.09S
MARSHALLTOWN   CLEAR     62  62 100 E6        30.11R
NEWTON *       PTCLDY    66  66 100 E6        30.10S FOG
PELLA *        PTCLDY    68  67  96 CALM      30.11S FOG
PERRY *        FOG       64  64 100 E3        30.09S VSB 1
$$

IAZ004>006-015-016-023>025-035-036-280900-
   NORTH CENTRAL IOWA

CITY           SKY/WX    TMP DP  RH WIND       PRES   REMARKS
ALGONA *       CLEAR     63  63 100 CALM      30.10S FOG
ESTHERVILLE    FOG       55  55 100 E3        30.09S VSB 1/4
FORT DODGE *   PTCLDY    66  64  94 SE5       30.11R
MASON CITY     FOG       58  58 100 CALM      30.13R VSB 1/4
FOREST CITY *    N/A    N/A N/A N/A MISG        N/A
WEBSTER CITY * MOCLDY    63  63 100 SE6       30.09R
IOWA FALLS *     N/A     63  62  95 SE3       30.12S FOG
$$

IAZ007>011-017>019-026>030-037>042-050>054-066-280900-
   NORTHEAST IOWA

CITY           SKY/WX    TMP DP  RH WIND       PRES   REMARKS
CEDAR RAPIDS   CLEAR     66  66 100 CALM      30.11S
CHARLES CITY * FOG       61  61 100 SE3       30.13R VSB 1/4
CLINTON *      CLEAR     66  66 100 N3        30.12R
DECORAH *      FOG       61  61 100 CALM      30.12S VSB 1/4
DUBUQUE        MOCLDY    64  63  96 CALM      30.13S FOG
MONTICELLO *   FOG       63  63 100 CALM      30.12S VSB 1/4
OELWEIN *      PTCLDY    61  61 100 SE5       30.13S FOG
WATERLOO       CLEAR     62  61  96 E3        30.10S FOG
$$

IAZ064-065-067-068-078-280900-
   EAST CENTRAL IOWA

CITY           SKY/WX    TMP DP  RH WIND       PRES   REMARKS
DAVENPORT      CLEAR     66  65  96 E3        30.12R
IOWA CITY      CLEAR     68  66  93 CALM      30.12S
MT. PLEASANT * CLEAR     71  71 100 CALM      30.11S
MUSCATINE *    CLEAR     68  66  94 CALM      30.10S
QUAD CITIES    CLEAR     69  68  96 E3        30.10R
$$

IAZ062-063-075>077-085>089-095>099-280900-
   SOUTHEAST IOWA

CITY           SKY/WX    TMP DP  RH WIND       PRES   REMARKS
BURLINGTON     FOG       70  70 100 CALM      30.10S VSB 1
FAIRFIELD *    PTCLDY    70  68  94 E3        30.10S
FORT MADISON * CLEAR     70  70 100 CALM      30.11F FOG
KEOKUK *       CLEAR     72  72 100 CALM      30.10S
OSKALOOSA *      N/A     68  66  95 CALM      30.11S
CENTERVILLE *    N/A     70  68  94 CALM      30.12S
OTTUMWA        PTCLDY    68  66  93 SE6       30.10S
WASHINGTON *   CLEAR     68  68 100 CALM      30.11S
$$

ABBREVIATIONS USED IN REMARKS
   TC - TEMPERATURES IN CELSIUS
  WCI - WIND CHILL INDEX
   HX - HEAT INDEX
  VSB - VISIBILITY
$$





USA.gov is the U.S. government's official web portal to all federal, state and local government web resources and services.